User: anonymous   Login
Location: Arrodets-la-Barthe
(43.0306°N, 0.2829°E)
Time: 16:57:26
(UTC+00:00)
Language:

UKube-1 - Orbit

View from above orbital plane
View from above orbital plane
View from above satellite
View from above satellite

Ground track
Ground track

The orbit data is extracted from the following two-line orbital elements,

1 40074U 14037F   24105.74492220  .00010042  00000-0  98405-3 0  9998
2 40074  98.3411  31.8417 0002146 295.2244  64.8751 14.92475440529319
Epoch (UTC): 14 April 2024 17:52:41
Eccentricity: 0.0002146
inclination: 98.3411°
perigee height: 589 km
apogee height: 592 km
right ascension of ascending node: 31.8417°
argument of perigee: 295.2244°
revolutions per day: 14.92475440
mean anomaly at epoch: 64.8751°
orbit number at epoch: 52931

The dashed part of the orbit path shows where the satellite is in the earth's shadow,  

DLR